Погода в Берёзовке

Россия / Приморский край     43°53′55″N   134°13′11″E
темп.,
°C
ветер,
м/с
пор.,
м/с
влажн.,
%
обл.,
%
осадки,
мм/ч
давл.,
гПа
погр.,
м
10 мая, пн
пн1001:00+2з26100100 0.4 1004339
04:00+2з27100100 1.1 1005432
07:00+3з14100100 1.1 1007194
10:00+4зсз27100100 1.9 1009810
13:00+4з2597100 0.5 1010763
16:00+4з2698100 0.9 1010803
19:00+4з2599100 0.3 1011793
22:00+3з1499100 0.7 1013613
11 мая, вт
вт1101:00+3з1499100 1.4 1013631
04:00+3з2599100 2.3 1014786
07:00+3з1599100 0.6 1015797
10:00+3зсз1397100 0.9 1017733
13:00+4з1296100 0.3 1018451
16:00+8зсз1277100 0.5 1017939
19:00+7юз118193 0.2 101829
22:00+3юв21925 0.2 102014
12 мая, ср
ср1201:00+1ююв219798 0.0 102118
04:000юв2298100 0.0 102132
07:00+2юв2395100 0.0 1021135
10:00+9юв2467100 0.0 1018618
13:00+12юз2550100 0.0 10161343
16:00+10ю3658100 0.0 10151211
19:00+6ююз2387100 0.5 1016101
22:00+5ю2396100 1.4 1017147
13 мая, чт
чт1301:00+3ю23950 0.1 1017104
04:00+1ююз24970 0.1 101771
07:00+4ююз24930 0.0 1017100
10:00+13зюз25560 0.0 1014531
13:00+18з473469 0.0 10132762
16:00+18зсз5629100 0.0 10122927
19:00+13зюз1154100 0.0 101321
22:00+9ю2264100 0.0 101516
14 мая, пт
пт1401:00+9ю1171100 0.0 101511
04:00+9ю2163100 0.0 101313
07:00+9ююз3566100 0.0 1014114
10:00+13ююв1451100 0.0 1013596
13:00+15ююз1247100 0.0 10121010
16:00+17ю1244100 0.0 10091230
19:00+14ю2466100 0.0 1010264
22:00+9юв2394100 1.4 101196